Regional Weather Roundup
Issued by NWS

Home | Current Version | Previous Version | Graphics & Text | Print | Product List | Glossary On
Versions: 1 2 3 4 5 6 7 8 9 10 11 12 13 14 15 16 17 18 19 20 21 22 23 24 25 26 27 28 29 30 31 32 33 34 35 36 37 38 39 40 41 42 43 44 45 46 47 48 49 50
000
ASUS43 KOAX 051702
RWRNE

WEATHER ROUNDUP FOR NEBRASKA
NATIONAL WEATHER SERVICE OMAHA NE
1200 PM CDT THU MAY 05 2016

NOTES: SATELLITE DATA IS BEING USED TO AUGMENT CLOUD COVER ABOVE
       12000 FEET.
       "FAIR" INDICATES FEW OR NO CLOUDS BELOW 12,000 FEET WITH NO
       SIGNIFICANT WEATHER AND/OR OBSTRUCTIONS TO VISIBILITY.

  * THESE STATIONS DO NOT REPORT WEATHER SUCH AS RAIN...SNOW OR FOG.

NEZ001>004-019>022-054>056-051800-
NEBRASKA PANHANDLE

CITY           SKY/WX    TMP DP  RH WIND       PRES   REMARKS
SCOTTSBLUFF    CLOUDY    73  43  33 CALM      30.04S
ALLIANCE       SUNNY     76  42  29 SW16      30.03F
CHADRON        SUNNY     76  47  35 W6        29.97F
KIMBALL        CLOUDY    75  41  29 SW12      30.10S
SIDNEY         CLOUDY    76  43  30 S20       30.08F
$$

NEZ057>060-069>072-079>082-051800-
SOUTHWEST NEBRASKA

CITY           SKY/WX    TMP DP  RH WIND       PRES   REMARKS
NORTH PLATTE   SUNNY     74  50  42 S8        30.07F
IMPERIAL       CLOUDY    74  43  32 S14       30.08F
MCCOOK         SUNNY     74  54  49 S9        30.08F
$$

NEZ005>010-023>029-035>040-094-051800-
NORTH CENTRAL NEBRASKA

CITY           SKY/WX    TMP DP  RH WIND       PRES   REMARKS
VALENTINE      SUNNY     77  44  30 S12       30.01F
AINSWORTH      SUNNY     77  44  31 S10       30.03F
BROKEN BOW     SUNNY     74  47  38 SW12      30.08S HAZE
ORD            SUNNY     71  44  37 S13       30.07F
$$

NEZ041-046>049-061>064-073>077-083>087-051800-
SOUTH CENTRAL NEBRASKA

CITY           SKY/WX    TMP DP  RH WIND       PRES   REMARKS
GRAND ISLAND   SUNNY     73  39  29 W5        30.10F
AURORA         SUNNY     72  36  27 S6        30.10F
HASTINGS       SUNNY     71  39  31 S7        30.10F
KEARNEY *      SUNNY     72  39  30 S7        30.11S
YORK           SUNNY     72  34  25 W6        30.10F
$$

NEZ011>018-030>034-042>045-051800-
NORTHEAST NEBRASKA

CITY           SKY/WX    TMP DP  RH WIND       PRES   REMARKS
NORFOLK        SUNNY     73  38  27 SW10      30.07F
ALBION         SUNNY     72  38  29 SW8       30.08F
BLAIR          SUNNY     69  37  30 CALM      30.10R
COLUMBUS *     SUNNY     72  39  30 W8        30.10S
FREMONT        SUNNY     70  37  29 CALM      30.10S
TEKAMAH        SUNNY     69  41  36 CALM      30.09S
$$

NEZ050>053-065>068-078-088>093-051800-
SOUTHEAST NEBRASKA

CITY           SKY/WX    TMP DP  RH WIND       PRES   REMARKS
LINCOLN        SUNNY     72  37  28 VRB3      30.11S
OMAHA EPPLEY   MOSUNNY   69  42  37 CALM      30.09S
BEATRICE       SUNNY     70  36  28 NE3       30.11S
FALLS CITY     SUNNY     69  43  38 VRB3      30.10S
NEBRASKA CITY  SUNNY     69  37  31 CALM      30.11R
$$

NEZ044-045-051>053-067-051800-
OMAHA AREA

CITY           SKY/WX    TMP DP  RH WIND       PRES   REMARKS
OMAHA EPPLEY   MOSUNNY   69  42  37 CALM      30.09S
BLAIR          SUNNY     69  37  30 CALM      30.10R
FREMONT        SUNNY     70  37  29 CALM      30.10S
OFFUTT AFB     SUNNY     69  37  30 SW3       30.09R
WAHOO          FAIR      71  35  26 CALM      30.09S
$$




USA.gov is the U.S. government's official web portal to all federal, state and local government web resources and services.